Naples, FL

5:29 PM EDT on July 20, 2017 (GMT -0400)
Naples Municipal

Weather History for KAPF - February, 2015

Change the Weather History Date:

Saturday, February 7, 2015

  Actual Average Record
Temperature  
Mean Temperature 65 °F 66 °F  
Max Temperature 76 °F 76 °F 86 °F (1982)
Min Temperature 53 °F 56 °F 31 °F (1978)
Degree Days  
Heating Degree Days 0 2  
Month to date heating degree days 1 14  
Since 1 July heating degree days 118 194  
Cooling Degree Days 0 3  
Month to date cooling degree days 10 20  
Year to date cooling degree days 127 106  
Growing Degree Days 14 (Base 50)    
Moisture  
Dew Point 49 °F    
Average Humidity 63    
Maximum Humidity 89    
Minimum Humidity 36    
Precipitation  
Precipitation 0.00 in 0.07 in 0.78 in (1958)
Month to date precipitation 1.11 0.50  
Year to date precipitation 1.21 2.35  
Snow  
Snow 0.00 in - - ()
Month to date snowfall 0.0  
Since 1 July snowfall 0.0  
Snow Depth 0.00 in    
Sea Level Pressure  
Sea Level Pressure 30.19 in    
Wind  
Wind Speed 10 mph (ENE)    
Max Wind Speed 20 mph    
Max Gust Speed 25 mph    
Visibility 10 miles    
Events      
T = Trace of Precipitation, MM = Missing Value Source: NWS Daily Summary

Daily Weather History Graph

Daily Weather History Graph

Search for Another Location

Airport or City:

Trip Planner

Search our weather history database for the weather conditions in past years. The results will help you decide how hot, cold, wet, or windy it might be!

Date:

Astronomy

Feb. 07, 2015 Rise Set
Actual Time 7:08 AM EST 6:14 PM EST
Civil Twilight 6:44 AM EST 6:38 PM EST
Nautical Twilight 6:16 AM EST 7:05 PM EST
Astronomical Twilight 5:49 AM EST 7:32 PM EST
Moon 9:32 PM EST (2/7) 9:05 AM EST (2/7)
Length of Visible Light 11h 54m
Length of Day
11h 06m
Waning Gibbous, 88% of the Moon is Illuminated
Feb 7
Waning Gibbous
Feb 11
Last Quarter
Feb 18
New
Feb 25
First Quarter
Mar 5
Full

Hourly Weather History & Observations

Time (EST) Temp. Dew Point Humidity Pressure Visibility Wind Dir Wind Speed Gust Speed Precip Events Conditions
12:53 AM 57.9 °F 48.0 °F 70% 30.20 in 10.0 mi NE 12.7 mph - N/A   Scattered Clouds
1:53 AM 57.0 °F 48.0 °F 72% 30.20 in 10.0 mi NE 10.4 mph - N/A   Mostly Cloudy
2:53 AM 55.9 °F 48.9 °F 77% 30.18 in 10.0 mi NE 11.5 mph - N/A   Partly Cloudy
3:53 AM 55.0 °F 48.9 °F 80% 30.17 in 10.0 mi NE 13.8 mph - N/A   Clear
4:53 AM 54.0 °F 50.0 °F 86% 30.17 in 10.0 mi NE 10.4 mph - N/A   Clear
5:53 AM 54.0 °F 50.0 °F 86% 30.19 in 10.0 mi NE 10.4 mph - N/A   Clear
6:53 AM 53.1 °F 50.0 °F 89% 30.19 in 10.0 mi NE 10.4 mph - N/A   Clear
7:53 AM 54.0 °F 50.0 °F 86% 30.21 in 10.0 mi NE 9.2 mph - N/A   Clear
8:53 AM 57.0 °F 50.0 °F 77% 30.23 in 10.0 mi NE 8.1 mph - N/A   Clear
9:53 AM 64.0 °F 52.0 °F 65% 30.24 in 10.0 mi ENE 10.4 mph - N/A   Clear
10:53 AM 70.0 °F 51.1 °F 51% 30.22 in 10.0 mi ENE 18.4 mph 21.9 mph N/A   Clear
11:53 AM 71.1 °F 50.0 °F 47% 30.21 in 10.0 mi East 15.0 mph - N/A   Clear
12:53 PM 73.9 °F 51.1 °F 45% 30.19 in 10.0 mi East 13.8 mph - N/A   Clear
1:53 PM 73.9 °F 50.0 °F 43% 30.16 in 10.0 mi ENE 15.0 mph 19.6 mph N/A   Clear
2:53 PM 72.0 °F 46.9 °F 41% 30.15 in 10.0 mi East 9.2 mph - N/A   Scattered Clouds
3:53 PM 75.0 °F 46.9 °F 37% 30.14 in 10.0 mi ESE 8.1 mph - N/A   Scattered Clouds
4:53 PM 73.0 °F 46.9 °F 39% 30.14 in 10.0 mi ENE 10.4 mph - N/A   Clear
5:53 PM 69.1 °F 48.0 °F 47% 30.15 in 10.0 mi ENE 6.9 mph - N/A   Clear
6:53 PM 64.9 °F 48.9 °F 56% 30.17 in 10.0 mi ENE 10.4 mph - N/A   Clear
7:53 PM 64.0 °F 48.9 °F 58% 30.18 in 10.0 mi East 5.8 mph - N/A   Clear
8:53 PM 62.1 °F 48.9 °F 62% 30.19 in 10.0 mi East 6.9 mph - N/A   Clear
9:53 PM 61.0 °F 48.9 °F 64% 30.19 in 10.0 mi East 8.1 mph - N/A   Clear
10:53 PM 57.9 °F 48.9 °F 72% 30.19 in 10.0 mi East 8.1 mph - N/A   Clear
11:53 PM 57.0 °F 48.9 °F 74% 30.19 in 10.0 mi East 5.8 mph - N/A   Clear